#timestamp,LO_Frequency,Hit,StdDev 
1548334815.7,286046997.6,P
1548334835.6,286046996.9,N
1548334855.4,286046999.4,N
1548334875.2,286046999.0,N
1548334895.1,286046999.0,N
1548334896.0,286046999.0,N
1548334915.8,286046998.1,N
1548334935.6,286047000.8,N
1548334955.5,286047000.7,N
1548334975.3,286046999.3,N
1548334995.2,286046999.5,N
1548335015.9,286046996.9,N
1548335035.7,286046997.0,N
1548335055.6,286047001.1,N
1548335075.4,286047002.4,N
1548335095.2,286046999.9,N
1548335115.1,286046999.8,N
1548335116.0,286046999.8,N
1548335135.8,286047001.5,N
1548335155.7,286047002.2,N
1548335175.5,286047001.3,N
1548335195.3,286047002.4,N
1548335215.2,286047002.3,N
1548335235.9,286047002.5,N
1548335255.7,286047002.3,N
1548335275.6,286047000.3,N
1548335295.4,286047000.3,N
1548335315.2,286047000.9,N
1548335335.1,286047001.2,N
1548335336.0,286047001.2,N
1548335355.8,286047000.9,N
1548335375.7,286046999.9,N
1548335395.5,286047000.1,N
1548335415.3,286047000.4,N
1548335435.2,286046999.9,N
1548335455.0,286047000.1,N
1548335455.9,286047000.1,N
1548335475.8,286047002.2,N
1548335495.6,286046999.7,N
1548335515.4,286046998.1,N
1548335535.3,286047000.3,N
1548335555.1,286047000.1,N
1548335575.8,286047001.7,N
1548335595.7,286047004.4,Y
1548335615.5,286047001.5,P
1548335635.4,286047002.1,P
1548335655.2,286047001.9,P
1548335675.0,286047001.8,Y
1548335675.9,286047001.8,P
1548335695.8,286047002.8,P
1548335715.6,286047002.6,P
1548335735.5,286047002.2,Y
1548335755.3,286046998.8,P
1548335775.1,286046996.6,N
1548335795.9,286046998.0,N
1548335815.7,286046997.2,N
1548335835.5,286046995.1,N
1548335855.4,286046996.1,N
1548335875.2,286046996.1,N
1548335895.1,286046995.9,N
1548335896.0,286046995.9,N
1548335915.8,286046996.3,N
1548335935.6,286046994.5,N
1548335955.5,286046994.1,Y
1548335975.3,286046996.2,P
1548335995.1,286046995.6,P
1548336015.9,286046997.2,P
1548336035.7,286047000.6,N
1548336055.6,286046999.9,N
1548336075.4,286047002.8,N
1548336095.2,286047002.5,N
1548336115.1,286046999.8,N
1548336116.0,286046999.8,N
1548336135.8,286047000.2,N
1548336155.6,286047000.9,N
1548336175.5,286047000.6,N
1548336195.3,286046998.6,N
1548336215.2,286046998.9,N
1548336235.9,286046996.9,N
1548336255.7,286046997.0,N
1548336275.6,286046996.7,N
1548336295.4,286046999.5,N
1548336315.2,286046997.4,N
1548336365.1,286046999.0,E
1548336375.0,286047001.1,N
1548336375.9,286047001.1,P
1548336395.8,286047000.3,P
1548336415.6,286047000.0,N
1548336435.5,286047002.4,Y
1548336455.3,286047000.9,P
1548336475.1,286047000.9,P
1548336495.9,286047000.3,N
1548336515.7,286047000.6,N
1548336535.5,286047000.8,Y
1548336555.4,286047002.7,P
1548336575.2,286046999.8,N
1548336595.1,286047002.4,N
1548336596.0,286047002.4,N
1548336615.8,286047000.7,N
1548336635.6,286046998.5,N
1548336655.5,286046998.2,N
1548336675.3,286047001.1,N
1548336695.2,286047001.2,N
1548336715.9,286047000.7,N
1548336735.7,286046998.6,N
1548336755.6,286046998.3,N
1548336775.4,286047000.9,N
1548336795.2,286047000.2,N
1548336815.1,286047000.4,N
1548336816.0,286047000.4,N
1548336835.8,286047001.1,N
1548336855.7,286047000.5,N
1548336875.5,286047000.9,N
1548336895.3,286046999.0,N
1548336915.2,286046996.9,N
1548336935.0,286046999.1,N
1548336935.9,286046999.1,N
1548336955.8,286046996.5,N
1548336975.6,286046996.5,N
1548336995.4,286046999.1,N
1548337015.3,286046996.5,N
1548337035.1,286046999.1,N
1548337055.8,286046996.8,N
1548337075.7,286046999.5,N
1548337095.5,286046999.2,N
1548337115.4,286046999.4,N
1548337135.2,286046999.0,N
1548337155.0,286046999.1,N
1548337155.9,286046999.1,N
1548337175.8,286046996.5,N
1548337195.6,286046996.8,N
1548337215.5,286046997.5,N
1548337235.3,286046997.2,N
1548337255.1,286046998.9,N
1548337275.9,286046998.6,N
1548337295.7,286046999.6,N
1548337315.5,286046996.8,N
1548337335.4,286046999.2,N
1548337355.2,286046999.0,N
1548337375.1,286046999.6,N
1548337376.0,286046999.6,N
1548337395.8,286046996.9,N
1548337415.6,286046997.3,N
1548337435.5,286046995.4,Y
1548337455.3,286046997.2,P
1548337475.1,286046997.8,P
1548337495.9,286046995.0,P
1548337515.7,286046997.0,N
1548337535.6,286046999.5,N
1548337555.4,286046996.7,N
1548337575.2,286046998.0,N
1548337595.1,286046998.0,N
1548337596.0,286046998.0,N
1548337615.8,286046999.3,N
1548337635.7,286046998.2,N
1548337655.5,286046996.7,N
1548337675.3,286046999.2,N
1548337695.2,286046999.0,N
1548337715.0,286046997.0,N
1548337715.9,286046997.0,N
1548337735.8,286046996.5,Y
1548337755.6,286047002.5,P
1548337775.4,286047001.7,N
1548337795.3,286046999.8,N
1548337815.1,286047001.1,N
1548337835.8,286047001.0,N
1548337855.7,286047000.6,N
1548337875.5,286047000.4,N
1548337895.4,286047000.4,N
1548337915.2,286047000.8,N
1548337935.0,286047000.9,N
1548337935.9,286047000.9,N
1548337955.8,286046998.4,N
1548337975.6,286046999.2,N
1548337995.4,286046997.4,N
1548338015.3,286046997.5,N
1548338035.1,286046996.9,N
1548338055.8,286046997.3,N
1548338075.7,286046997.8,N
1548338095.5,286046997.9,N
1548338115.4,286046997.5,N
1548338135.2,286046997.8,N
1548338155.0,286046997.8,N
1548338155.9,286046997.8,N
1548338175.8,286046997.7,N
1548338195.6,286046998.0,N
1548338215.4,286046997.3,N
1548338235.3,286046996.5,N
1548338255.1,286046999.6,N
1548338275.9,286046998.9,N
1548338295.7,286046998.8,N
1548338315.5,286046998.9,N
1548338335.4,286046998.4,N
1548338355.2,286046998.8,N
1548338375.0,286046998.9,N
1548338376.0,286046998.9,N
1548338395.8,286046999.2,N
